Back to catalog

CZ-6A DEB

AliveSSO
NORAD 56648·DEBRIS·🇨🇳 China

Launched Nov 11, 2022 from Taiyuan Satellite Launch Center

Loading…

Next Passes (next 24 hours)

TLE

FreshSource: Space-Track

Epoch: Sep 14, 2026, 05:54 UTC

1 56648U 22151AFY 26257.24635937  .00000209  00000-0  14059-3 0  9994
2 56648  98.8401 251.8919 0053147 100.7503 259.9657 14.10085273174727

Track CZ-6A DEB in real time with AllMySat

Download on the App Store